FW3819 Weather Reports


Display with metric or nautical units.
time (UTC)temp
F
wind
direction
speed
MPH
gust
MPH
rain 1hr
in
rain 24hr
in
rain mn
in
humidity
%
barometer
mb
20260503054646 45 305 2.0 11.0 0.00 0.00 0.00 63 1015.2
20260503054149 45 261 2.0 8.0 0.00 0.00 0.00 63 1015.3
20260503053944 45 292 2.0 8.0 0.00 0.00 0.00 62 1015.2
20260503053442 45 218 2.0 9.0 0.00 0.00 0.00 63 1015.3
20260503052643 45 260 2.0 11.0 0.00 0.00 0.00 62 1015.3
20260503052140 46 268 3.0 11.0 0.00 0.00 0.00 62 1015.3
20260503051639 46 134 2.0 9.0 0.00 0.00 0.00 62 1015.3
20260503051139 46 281 2.0 8.0 0.00 0.00 0.00 62 1015.3
20260503050640 46 255 1.0 5.0 0.00 0.00 0.00 62 1015.4
20260503050139 46 279 2.0 7.0 0.00 0.00 0.00 62 1015.4
20260503045639 46 296 2.0 7.0 0.00 0.00 0.00 61 1015.5
20260503045440 46 305 1.0 5.0 0.00 0.00 0.00 62 1015.4
20260503044640 47 279 1.0 5.0 0.00 0.00 0.00 61 1015.6
20260503044141 47 279 1.0 5.0 0.00 0.00 0.00 61 1015.6
20260503043633 47 255 1.0 4.0 0.00 0.00 0.00 60 1015.6
20260503043132 47 54 1.0 4.0 0.00 0.00 0.00 59 1015.6
20260503042632 48 279 1.0 4.0 0.00 0.00 0.00 57 1015.6
20260503042433 48 54 1.0 3.0 0.00 0.00 0.00 57 1015.6
20260503041633 49 248 1.0 4.0 0.00 0.00 0.00 55 1015.6
20260503041436 49 289 1.0 7.0 0.00 0.00 0.00 54 1015.6
20260503040632 49 143 2.0 9.0 0.00 0.00 0.00 54 1015.6
20260503040130 49 283 2.0 9.0 0.00 0.00 0.00 53 1015.7
20260503035630 50 303 2.0 15.0 0.00 0.00 0.00 52 1015.7
20260503035130 50 307 2.0 15.0 0.00 0.00 0.00 52 1015.7
20260503034630 50 82 2.0 9.0 0.00 0.00 0.00 52 1015.6
20260503034131 50 269 2.0 12.0 0.00 0.00 0.00 52 1015.5
20260503033631 51 143 2.0 12.0 0.00 0.00 0.00 51 1015.5
20260503033129 51 296 2.0 9.0 0.00 0.01 0.00 51 1015.4
20260503032629 51 353 3.0 11.0 0.00 0.01 0.00 51 1015.4
20260503032131 51 273 2.0 11.0 0.00 0.01 0.00 51 1015.4
20260503031632 51 135 2.0 8.0 0.00 0.01 0.00 51 1015.2
20260503031129 51 255 2.0 12.0 0.00 0.01 0.00 50 1015.4
20260503030923 51 6 2.0 12.0 0.00 0.01 0.00 50 1015.3
20260503030129 52 178 2.0 11.0 0.00 0.01 0.00 49 1015.2
20260503025632 52 41 3.0 11.0 0.00 0.01 0.00 49 1015.2
20260503025129 52 261 3.0 9.0 0.00 0.01 0.00 49 1015.3
20260503024629 52 275 2.0 8.0 0.00 0.01 0.00 49 1015.3
20260503024132 52 5 2.0 9.0 0.00 0.01 0.00 48 1015.3
20260503023920 52 309 2.0 11.0 0.00 0.01 0.00 48 1015.2
20260503023131 52 296 2.0 11.0 0.00 0.01 0.00 49 1015.3
20260503022630 52 107 2.0 9.0 0.00 0.01 0.00 49 1015.3
20260503022131 52 272 2.0 8.0 0.00 0.01 0.00 50 1015.2
20260503021630 52 244 2.0 8.0 0.00 0.01 0.00 50 1015.2
20260503021439 52 129 2.0 7.0 0.00 0.01 0.00 50 1015.2
20260503020630 52 268 2.0 5.0 0.00 0.01 0.00 51 1015.2
20260503020130 52 299 2.0 5.0 0.00 0.01 0.00 51 1015.2
20260503015630 52 264 2.0 5.0 0.00 0.01 0.00 50 1015.1
20260503015131 52 239 2.0 5.0 0.00 0.01 0.00 50 1015.1
20260503014920 52 260 1.0 7.0 0.00 0.01 0.00 50 1015.0
20260503014123 52 309 1.0 7.0 0.00 0.01 0.00 50 1014.9
20260503013616 52 28 1.0 8.0 0.00 0.01 0.00 50 1014.7
20260503013110 52 326 1.0 8.0 0.00 0.01 0.00 50 1014.8
20260503012602 52 54 1.0 7.0 0.00 0.01 0.00 51 1014.7
20260503012102 52 11 1.0 7.0 0.00 0.01 0.00 51 1014.7
20260503011856 52 268 1.0 5.0 0.00 0.01 0.00 51 1014.6
20260503011102 53 260 1.0 5.0 0.00 0.01 0.00 50 1014.6
20260503010603 53 11 0.0 4.0 0.00 0.01 0.00 51 1014.5
20260503005859 53 11 0.0 4.0 0.00 0.01 0.00 50 1014.4
20260503005102 53 54 0.0 4.0 0.00 0.01 0.00 50 1014.4
20260503004603 53 234 0.0 3.0 0.00 0.01 0.00 48 1014.2
20260503004358 53 11 1.0 3.0 0.00 0.01 0.00 52 1014.1
20260503003603 54 279 1.0 4.0 0.00 0.01 0.00 49 1014.0
20260503003101 54 11 1.0 4.0 0.00 0.01 0.00 45 1013.9
20260503002602 54 326 1.0 4.0 0.00 0.01 0.00 46 1014.0
20260503002101 55 326 1.0 4.0 0.00 0.01 0.00 44 1013.9
20260503001853 55 326 1.0 5.0 0.00 0.01 0.00 44 1013.8
20260503001102 55 125 1.0 5.0 0.00 0.01 0.00 44 1013.8
20260503000857 55 11 1.0 5.0 0.00 0.01 0.00 43 1013.7
20260503000103 56 11 1.0 5.0 0.00 0.01 0.00 43 1013.6
20260502235857 56 28 2.0 8.0 0.00 0.01 0.00 43 1013.6
20260502235051 56 21 2.0 8.0 0.00 0.01 0.00 43 1013.5
20260502234545 56 242 2.0 9.0 0.00 0.01 0.00 43 1013.4
20260502234132 56 203 2.0 11.0 0.00 0.01 0.00 42 1013.4
20260502234112 56 291 2.0 11.0 0.00 0.01 0.00 42 1013.5
20260502233034 56 4 2.0 9.0 0.00 0.01 0.00 42 1013.4
20260502232833 56 310 1.0 5.0 0.00 0.01 0.00 42 1013.3
20260502232033 57 293 1.0 7.0 0.00 0.01 0.00 41 1013.4
20260502231531 56 28 2.0 12.0 0.00 0.01 0.00 41 1013.4
20260502231030 56 11 2.0 12.0 0.00 0.01 0.00 41 1013.4
20260502230532 56 11 2.0 9.0 0.00 0.01 0.00 41 1013.5
20260502230030 56 282 2.0 9.0 0.00 0.01 0.00 42 1013.3
20260502225632 57 262 2.0 9.0 0.00 0.01 0.00 40 1013.3
20260502225614 57 326 2.0 9.0 0.00 0.01 0.00 41 1013.4
20260502224530 57 54 2.0 9.0 0.00 0.01 0.00 41 1013.2
20260502224031 57 7 2.0 9.0 0.00 0.01 0.00 40 1013.3
20260502223530 57 308 2.0 9.0 0.00 0.01 0.00 40 1013.2
20260502223032 57 279 2.0 9.0 0.00 0.01 0.00 41 1013.3
20260502222531 57 305 2.0 8.0 0.00 0.01 0.00 41 1013.4
20260502222029 57 16 3.0 15.0 0.00 0.01 0.00 42 1013.3
20260502221826 57 326 3.0 15.0 0.00 0.01 0.00 41 1013.3
20260502221029 58 350 3.0 12.0 0.00 0.01 0.00 39 1013.3
20260502220529 58 54 3.0 12.0 0.00 0.01 0.00 39 1013.4
20260502220029 58 205 3.0 16.0 0.00 0.01 0.00 39 1013.3
20260502215531 58 264 3.0 16.0 0.00 0.01 0.00 39 1013.2
20260502215030 58 256 3.0 12.0 0.00 0.01 0.00 38 1013.3
20260502214832 58 73 4.0 15.0 0.00 0.01 0.00 38 1013.2
20260502214031 58 208 4.0 15.0 0.00 0.01 0.00 37 1013.2
20260502213528 59 28 4.0 15.0 0.00 0.01 0.00 37 1013.2
20260502213031 59 46 3.0 15.0 0.00 0.01 0.00 39 1013.1
20260502212531 59 271 4.0 16.0 0.00 0.01 0.00 38 1013.1
20260502212032 59 293 5.0 16.0 0.00 0.01 0.00 36 1013.3
20260502211531 60 249 4.0 22.0 0.00 0.01 0.00 36 1013.2
20260502211030 60 266 5.0 22.0 0.00 0.01 0.00 35 1013.0
20260502210624 61 274 5.0 23.0 0.00 0.01 0.00 35 1013.0
20260502210605 61 291 5.0 23.0 0.00 0.01 0.00 36 1013.0
20260502205532 60 234 4.0 14.0 0.00 0.01 0.00 36 1012.9
20260502205029 61 279 4.0 16.0 0.00 0.01 0.00 34 1012.9
20260502204528 60 184 5.0 19.0 0.00 0.01 0.00 33 1012.8
20260502204030 62 261 4.0 20.0 0.00 0.01 0.00 32 1012.9
20260502203530 62 276 3.0 20.0 0.00 0.01 0.00 31 1012.9
20260502203032 62 18 4.0 16.0 0.00 0.01 0.00 36 1012.8
20260502202530 59 234 4.0 16.0 0.00 0.01 0.00 34 1012.8
20260502202030 60 282 3.0 14.0 0.00 0.01 0.00 34 1012.9
20260502201529 60 305 3.0 11.0 0.00 0.01 0.00 33 1012.8
20260502201030 61 340 3.0 16.0 0.00 0.01 0.00 34 1012.9
20260502200530 60 295 4.0 19.0 0.00 0.01 0.00 34 1012.8
20260502200031 60 343 4.0 19.0 0.00 0.01 0.00 33 1012.8
20260502195528 61 301 3.0 12.0 0.00 0.01 0.00 33 1012.9
20260502195029 62 11 3.0 11.0 0.00 0.01 0.00 33 1012.9
20260502194824 62 353 3.0 11.0 0.00 0.01 0.00 33 1012.9
20260502194029 60 16 3.0 11.0 0.00 0.01 0.00 34 1012.9
20260502193529 62 314 3.0 11.0 0.00 0.01 0.00 34 1013.2
20260502193029 62 312 2.0 5.0 0.00 0.01 0.00 33 1013.1
20260502192529 61 338 2.0 8.0 0.00 0.01 0.00 36 1013.2
20260502192030 61 25 1.0 8.0 0.00 0.01 0.00 39 1013.4
20260502191528 59 4 1.0 7.0 0.00 0.01 0.00 40 1013.6
20260502191029 59 340 2.0 5.0 0.00 0.01 0.00 40 1013.8
20260502190529 60 326 1.0 4.0 0.00 0.01 0.00 37 1014.0
20260502190031 61 265 2.0 7.0 0.00 0.01 0.00 37 1013.9
20260502185533 61 54 2.0 9.0 0.00 0.01 0.00 36 1014.0
20260502185029 60 54 2.0 9.0 0.00 0.01 0.00 37 1014.0
20260502184829 59 234 2.0 8.0 0.00 0.01 0.00 38 1014.0
20260502184029 58 188 2.0 8.0 0.00 0.01 0.00 40 1014.2
20260502183530 58 28 3.0 8.0 0.00 0.01 0.00 39 1014.3
20260502183328 58 326 4.0 12.0 0.00 0.01 0.00 38 1014.5
20260502182529 60 280 3.0 12.0 0.00 0.01 0.00 40 1014.6
20260502182030 60 270 2.0 8.0 0.00 0.01 0.00 42 1014.6
20260502181532 59 282 2.0 8.0 0.00 0.01 0.00 41 1014.6
20260502181029 58 239 2.0 8.0 0.00 0.01 0.00 39 1014.7
20260502180532 58 345 2.0 9.0 0.00 0.01 0.00 39 1014.7
20260502170507 58 21 3.0 15.0 0.00 0.01 0.00 40 1015.2
20260502164004 57 305 2.0 9.0 0.00 0.01 0.00 44 1015.5
20260502163505 56 73 2.0 9.0 0.00 0.01 0.00 45 1015.6
20260502163005 55 292 2.0 9.0 0.00 0.01 0.00 46 1015.6
20260502162505 55 28 3.0 14.0 0.00 0.01 0.00 47 1015.7
20260502162004 55 268 3.0 14.0 0.00 0.01 0.00 47 1015.6
20260502161500 55 272 3.0 9.0 0.00 0.01 0.00 47 1015.5
20260502160955 55 266 3.0 12.0 0.00 0.01 0.00 47 1015.7
20260502160449 55 315 3.0 15.0 0.00 0.01 0.00 45 1015.8
20260502160248 55 263 3.0 14.0 0.00 0.01 0.00 48 1015.7
20260502152227 54 234 2.0 9.0 0.00 0.01 0.00 51 1015.9
20260502151437 53 286 2.0 9.0 0.00 0.01 0.00 50 1015.8
20260502150932 54 276 3.0 11.0 0.00 0.01 0.00 51 1016.0
20260502150431 54 348 3.0 11.0 0.00 0.01 0.00 49 1016.0
20260502130724 49 279 2.0 8.0 0.00 0.01 0.00 66 1015.7
20260502123430 48 292 3.0 9.0 0.00 0.01 0.00 68 1015.7
20260502122932 48 243 2.0 9.0 0.00 0.01 0.00 68 1015.8
20260502122430 48 267 3.0 12.0 0.00 0.01 0.00 68 1015.8
20260502121931 48 279 3.0 12.0 0.00 0.01 0.00 68 1015.8
20260502121432 48 268 3.0 16.0 0.00 0.01 0.00 69 1015.8
20260502121221 47 277 5.0 16.0 0.00 0.01 0.00 68 1015.8
20260502120432 47 269 4.0 16.0 0.00 0.01 0.00 69 1015.7
20260502115932 47 282 3.0 15.0 0.00 0.01 0.00 68 1015.8
20260502115430 47 0 3.0 16.0 0.00 0.01 0.00 69 1015.8
20260502114930 47 287 3.0 16.0 0.00 0.01 0.00 69 1015.7
20260502114430 47 273 3.0 11.0 0.00 0.01 0.00 69 1015.8
20260502113931 47 312 3.0 16.0 0.00 0.01 0.00 68 1015.8
20260502113434 47 353 3.0 16.0 0.00 0.01 0.00 68 1015.8
20260502112931 47 281 4.0 12.0 0.00 0.01 0.00 68 1015.8
20260502112433 47 172 4.0 14.0 0.00 0.01 0.00 68 1015.7
20260502111932 47 305 4.0 14.0 0.00 0.01 0.00 68 1015.8
20260502111430 47 285 4.0 15.0 0.00 0.01 0.00 67 1015.9
20260502111222 47 241 4.0 20.0 0.00 0.01 0.00 67 1015.8
20260502110430 48 285 5.0 20.0 0.00 0.01 0.00 66 1015.6
20260502105930 48 296 5.0 19.0 0.00 0.01 0.00 66 1015.5
20260502105430 48 250 5.0 15.0 0.00 0.01 0.00 66 1015.5
20260502104933 48 255 4.0 15.0 0.00 0.01 0.00 65 1015.5
20260502104431 48 270 3.0 14.0 0.00 0.01 0.00 65 1015.5
20260502103931 48 309 4.0 14.0 0.00 0.01 0.00 65 1015.4
20260502103431 48 309 4.0 14.0 0.00 0.01 0.00 64 1015.4
20260502102930 49 340 3.0 14.0 0.00 0.01 0.00 64 1015.4
20260502102430 49 236 3.0 16.0 0.00 0.01 0.00 64 1015.4
20260502101930 49 274 3.0 16.0 0.00 0.01 0.00 64 1015.3
20260502101731 49 343 3.0 14.0 0.00 0.01 0.00 63 1015.2
20260502100921 49 277 3.0 15.0 0.00 0.01 0.00 64 1015.3
20260502100417 49 242 3.0 15.0 0.00 0.01 0.00 63 1015.1
20260502091414 50 340 2.0 7.0 0.00 0.01 0.00 66 1014.2
20260502090912 51 265 2.0 7.0 0.00 0.01 0.00 66 1014.3
20260502090409 51 11 2.0 8.0 0.00 0.01 0.00 64 1014.1
20260502071406 52 305 1.0 4.0 0.00 0.01 0.00 75 1014.1
20260502071158 52 54 1.0 4.0 0.00 0.01 0.00 74 1014.0
20260502070404 52 248 1.0 3.0 0.00 0.01 0.00 74 1014.1
20260502065905 52 326 1.0 9.0 0.00 0.01 0.00 74 1013.9
20260502065402 52 54 2.0 9.0 0.00 0.01 0.00 74 1013.8
20260502065200 52 326 1.0 5.0 0.00 0.01 0.00 73 1013.8
20260502064402 53 273 2.0 5.0 0.00 0.01 0.00 74 1013.7
20260502063902 53 255 2.0 4.0 0.00 0.01 0.00 74 1013.7
20260502063402 53 11 2.0 9.0 0.00 0.01 0.00 74 1013.7
20260502062902 53 345 1.0 9.0 0.00 0.01 0.00 75 1013.7
20260502062402 53 261 1.0 4.0 0.00 0.01 0.00 76 1014.0
20260502061957 53 326 1.0 5.0 0.00 0.01 0.00 77 1014.1
20260502061937 53 271 1.0 5.0 0.00 0.01 0.00 75 1014.0
20260502060901 53 340 1.0 7.0 0.00 0.01 0.00 77 1014.3
20260502060402 53 260 2.0 8.0 0.00 0.01 0.00 78 1014.4
20260502055902 53 261 2.0 8.0 0.00 0.01 0.00 78 1014.4
20260502055657 53 248 1.0 7.0 0.00 0.01 0.00 81 1014.5